Terminal Aerodrome Forecast
Issued by NWS Rapid City, SD

Home | Current Version | Previous Version | Graphics & Text | Print | Product List | Glossary On
Versions: 1 2 3 4 5 6 7 8 9 10 11 12 13
000
FTUS43 KUNR 301738
TAFRAP
TAF
KRAP 301738Z 3018/3118 14015G25KT P6SM SCT250
     FM310200 16010KT P6SM BKN250
     FM310800 15006KT P6SM BKN050=

USA.gov is the U.S. government's official web portal to all federal, state and local government web resources and services.